Location: Laporte
(40.6264°N, 105.1378°W)
Time: 13:26:20
(UTC+00:00)

Envisat - Pass Details

Date: 18 August 2022
Orbit: 764 x 765 km, 98.2° (Epoch: 26 September)

Event Time Altitude Azimuth Distance (km) Brightness Sun altitude
Rises 10:56:39 0° 19° (NNE) 3,239 7.1 -14.2°
Reaches altitude 10° 10:59:04 10° 26° (NNE) 2,308 6.4 -13.8°
Maximum altitude 11:03:55 44° 98° (E) 1,052 4.1 -13.0°
Drops below altitude 10° 11:08:44 10° 171° (S) 2,292 5.3 -12.2°
Sets 11:11:07 0° 177° (S) 3,213 6.0 -11.8°
